Station History

Weather Underground - logo

Station Historical Data
Daily Summary for January 10, 2018 Units:  English    Metric   Both
« Previous Day
Next Day »
Daily Weekly Monthly Yearly Custom
  High: Low: Average:
Temperature: 62.0 °F 45.7 °F 53.8 °F
Dew Point: 53.3 °F 44.4 °F 50.1 °F
Humidity: 96 % 73 % 88 %
Wind Speed: 6.0 mph 0.0 mph 1.5 mph
Wind Gust: 6.0 mph - -
Wind:- - WNW
Pressure: 30.25 in 29.91 in -
Precipitation: 0.00 in    
Historical Graphs
 
 
Tabular Data for January 10, 2018
Time Temperature Dew Point Pressure Wind Wind Speed Wind Gust Humidity Rainfall Rate (Hourly)
00:05 51.5 °F 49.5 °F 29.91 in Calm     93 % 0.00 in
00:16 51.3 °F 49.3 °F 29.92 in Calm     93 % 0.00 in
00:49 51.6 °F 50.2 °F 29.95 in Calm     95 % 0.00 in
01:06 52.2 °F 50.5 °F 29.96 in Calm     94 % 0.00 in
01:24 52.5 °F 50.5 °F 29.96 in Calm     93 % 0.00 in
02:11 52.5 °F 50.2 °F 29.98 in Calm     92 % 0.00 in
02:31 52.4 °F 50.1 °F 29.98 in Calm     92 % 0.00 in
02:52 51.8 °F 49.8 °F 29.98 in Calm     93 % 0.00 in
03:00 51.4 °F 49.4 °F 29.98 in NW 1.2 mph 1.2 mph 93 % 0.00 in
03:24 51.1 °F 49.4 °F 29.99 in Calm     94 % 0.00 in
03:41 51.4 °F 49.7 °F 29.99 in Calm     94 % 0.00 in
03:55 50.7 °F 49.0 °F 29.99 in Calm     94 % 0.00 in
04:12 49.8 °F 48.1 °F 30.00 in Calm     94 % 0.00 in
05:03 51.1 °F 50.0 °F 30.01 in Calm     96 % 0.00 in
05:09 51.2 °F 50.1 °F 30.01 in Calm     96 % 0.00 in
05:24 51.3 °F 50.2 °F 30.02 in Calm     96 % 0.00 in
05:40 51.7 °F 50.3 °F 30.03 in Calm     95 % 0.00 in
05:56 51.9 °F 50.5 °F 30.04 in NW 1.0 mph 1.0 mph 95 % 0.00 in
06:02 52.0 °F 50.6 °F 30.04 in NW 1.2 mph   95 % 0.00 in
06:11 52.0 °F 50.6 °F 30.05 in NNE 1.2 mph 1.2 mph 95 % 0.00 in
06:22 52.1 °F 50.4 °F 30.05 in NNW 2.0 mph 2.0 mph 94 % 0.00 in
06:24 52.1 °F 50.4 °F 30.06 in NW 1.2 mph 1.2 mph 94 % 0.00 in
06:29 52.1 °F 50.4 °F 30.06 in Calm     94 % 0.00 in
06:38 52.2 °F 50.8 °F 30.06 in Calm   0.2 mph 95 % 0.00 in
06:44 52.2 °F 50.8 °F 30.07 in NW 1.2 mph 1.2 mph 95 % 0.00 in
06:52 52.2 °F 50.8 °F 30.07 in NW 1.2 mph   95 % 0.00 in
06:57 52.2 °F 50.8 °F 30.08 in NW 1.2 mph 1.2 mph 95 % 0.00 in
07:02 52.2 °F 50.8 °F 30.08 in NW 2.3 mph 2.3 mph 95 % 0.00 in
07:09 52.2 °F 50.8 °F 30.08 in NW 1.2 mph 1.2 mph 95 % 0.00 in
07:14 52.2 °F 50.5 °F 30.08 in North 3.5 mph 3.5 mph 94 % 0.00 in
07:19 52.2 °F 50.5 °F 30.09 in NW 1.2 mph 1.2 mph 94 % 0.00 in
07:26 52.1 °F 50.4 °F 30.09 in NW 1.2 mph   94 % 0.00 in
07:33 52.1 °F 50.4 °F 30.09 in NNW 2.3 mph 2.3 mph 94 % 0.00 in
07:42 52.1 °F 50.4 °F 30.09 in NW 2.3 mph 2.3 mph 94 % 0.00 in
07:47 52.0 °F 50.3 °F 30.10 in NW 2.3 mph 2.3 mph 94 % 0.00 in
07:52 51.9 °F 50.2 °F 30.10 in NW 2.3 mph 2.3 mph 94 % 0.00 in
07:58 51.9 °F 50.2 °F 30.10 in WNW 2.3 mph 2.3 mph 94 % 0.00 in
08:08 51.7 °F 50.0 °F 30.09 in WNW 3.5 mph 3.5 mph 94 % 0.00 in
08:14 51.7 °F 50.0 °F 30.10 in NNW 2.3 mph 2.3 mph 94 % 0.00 in
08:19 51.7 °F 49.7 °F 30.10 in WNW 2.3 mph 2.3 mph 93 % 0.00 in
08:26 51.9 °F 49.9 °F 30.11 in NW 1.2 mph 1.2 mph 93 % 0.00 in
08:34 52.1 °F 50.1 °F 30.11 in NW 1.2 mph 1.2 mph 93 % 0.00 in
08:44 52.5 °F 50.5 °F 30.12 in NW 1.2 mph 1.2 mph 93 % 0.00 in
08:52 53.0 °F 50.7 °F 30.13 in WNW 2.3 mph 2.3 mph 92 % 0.00 in
08:58 53.2 °F 50.6 °F 30.14 in NW 2.3 mph 2.3 mph 91 % 0.00 in
09:05 53.5 °F 50.9 °F 30.14 in NNW 3.5 mph 3.5 mph 91 % 0.00 in
09:12 53.9 °F 51.0 °F 30.15 in ESE 3.5 mph 3.5 mph 90 % 0.00 in
09:19 54.1 °F 50.9 °F 30.16 in NE 5.8 mph 5.8 mph 89 % 0.00 in
09:27 54.3 °F 51.1 °F 30.17 in WNW 3.5 mph 3.5 mph 89 % 0.00 in
09:32 54.4 °F 51.2 °F 30.17 in NNW 3.5 mph 3.5 mph 89 % 0.00 in
09:37 54.5 °F 51.3 °F 30.17 in NW 2.3 mph 2.3 mph 89 % 0.00 in
09:45 54.6 °F 51.1 °F 30.18 in WNW 2.3 mph 2.3 mph 88 % 0.00 in
09:57 55.1 °F 51.3 °F 30.18 in NW 3.5 mph 3.5 mph 87 % 0.00 in
10:05 55.3 °F 51.2 °F 30.18 in NW 3.5 mph 3.5 mph 86 % 0.00 in
10:19 56.2 °F 52.1 °F 30.18 in NNE 1.2 mph 1.7 mph 86 % 0.00 in
10:28 56.8 °F 52.0 °F 30.18 in NNW 3.5 mph 3.5 mph 84 % 0.00 in
10:38 56.8 °F 52.0 °F 30.17 in NW 4.0 mph 4.0 mph 84 % 0.00 in
10:47 57.2 °F 52.1 °F 30.17 in NNE 3.5 mph 3.5 mph 83 % 0.00 in
10:56 57.6 °F 52.1 °F 30.17 in NW 3.5 mph 3.5 mph 82 % 0.00 in
11:10 58.2 °F 52.1 °F 30.17 in NW 4.6 mph 4.6 mph 80 % 0.00 in
11:34 58.4 °F 52.3 °F 30.16 in NW 3.5 mph 3.5 mph 80 % 0.00 in
12:00 58.8 °F 52.6 °F 30.16 in WNW 5.0 mph 5.0 mph 80 % 0.00 in
12:19 59.4 °F 52.2 °F 30.16 in WNW 4.6 mph 4.6 mph 77 % 0.00 in
12:25 59.7 °F 52.5 °F 30.16 in NW 3.5 mph 3.5 mph 77 % 0.00 in
12:30 59.6 °F 52.7 °F 30.16 in West 3.5 mph 3.5 mph 78 % 0.00 in
12:35 59.6 °F 52.7 °F 30.15 in NNE 5.0 mph 5.0 mph 78 % 0.00 in
12:52 59.5 °F 52.3 °F 30.15 in WNW 4.0 mph 4.0 mph 77 % 0.00 in
13:15 59.6 °F 52.4 °F 30.15 in NW 3.5 mph 3.5 mph 77 % 0.00 in
13:21 59.4 °F 52.2 °F 30.14 in NW 6.0 mph 6.0 mph 77 % 0.00 in
13:26 59.8 °F 52.2 °F 30.14 in NW 3.5 mph 3.5 mph 76 % 0.00 in
13:34 59.8 °F 52.2 °F 30.14 in NW 3.5 mph 3.5 mph 76 % 0.00 in
13:39 60.1 °F 52.5 °F 30.14 in North 4.6 mph 4.6 mph 76 % 0.00 in
13:56 61.3 °F 52.9 °F 30.14 in NW 5.0 mph 5.0 mph 74 % 0.00 in
14:02 61.7 °F 53.3 °F 30.14 in NNW 3.5 mph 3.5 mph 74 % 0.00 in
14:08 62.0 °F 53.2 °F 30.14 in NW 3.5 mph 3.5 mph 73 % 0.00 in
14:21 61.4 °F 52.7 °F 30.15 in NW 3.5 mph 3.5 mph 73 % 0.00 in
14:27 61.2 °F 52.8 °F 30.15 in NW 3.5 mph 3.5 mph 74 % 0.00 in
14:36 61.2 °F 52.8 °F 30.15 in NNW 3.5 mph 3.5 mph 74 % 0.00 in
14:42 61.2 °F 52.5 °F 30.14 in NW 4.6 mph 4.6 mph 73 % 0.00 in
15:06 60.9 °F 52.6 °F 30.15 in NW 4.6 mph 4.6 mph 74 % 0.00 in
15:11 60.8 °F 52.1 °F 30.15 in NW 3.5 mph 3.5 mph 73 % 0.00 in
15:38 60.8 °F 52.1 °F 30.14 in NW 3.5 mph 3.5 mph 73 % 0.00 in
15:45 60.6 °F 52.3 °F 30.15 in NNW 2.3 mph 2.3 mph 74 % 0.00 in
16:09 59.9 °F 52.3 °F 30.15 in NW 3.5 mph 3.5 mph 76 % 0.00 in
16:16 59.7 °F 52.1 °F 30.15 in NW 2.3 mph 2.3 mph 76 % 0.00 in
16:25 59.4 °F 51.8 °F 30.15 in NW 3.5 mph 3.5 mph 76 % 0.00 in
16:31 59.3 °F 52.1 °F 30.15 in WNW 3.5 mph 3.5 mph 77 % 0.00 in
16:37 59.1 °F 52.2 °F 30.16 in NW 2.3 mph 2.3 mph 78 % 0.00 in
16:46 58.6 °F 51.8 °F 30.16 in North 3.5 mph 3.5 mph 78 % 0.00 in
16:52 58.2 °F 51.7 °F 30.16 in WNW 2.3 mph   79 % 0.00 in
17:00 57.7 °F 51.6 °F 30.16 in Calm     80 % 0.00 in
17:06 57.4 °F 51.3 °F 30.16 in WNW 1.0 mph 1.0 mph 80 % 0.00 in
17:09 57.3 °F 51.2 °F 30.16 in WNW 1.2 mph 1.2 mph 80 % 0.00 in
17:10 57.2 °F 51.1 °F 30.16 in Calm     80 % 0.00 in
17:11 57.1 °F 51.3 °F 30.16 in Calm     81 % 0.00 in
17:12 57.1 °F 51.3 °F 30.16 in Calm     81 % 0.00 in
17:13 57.0 °F 51.2 °F 30.16 in Calm     81 % 0.00 in
17:18 56.7 °F 50.9 °F 30.16 in Calm     81 % 0.00 in
17:27 56.0 °F 50.9 °F 30.17 in Calm     83 % 0.00 in
17:36 55.4 °F 50.6 °F 30.16 in Calm     84 % 0.00 in
17:43 55.0 °F 50.6 °F 30.16 in Calm     85 % 0.00 in
17:50 54.8 °F 51.0 °F 30.16 in Calm     87 % 0.00 in
17:56 54.5 °F 50.7 °F 30.17 in Calm     87 % 0.00 in
18:02 54.5 °F 50.7 °F 30.17 in Calm     87 % 0.00 in
18:07 54.4 °F 50.9 °F 30.17 in Calm     88 % 0.00 in
18:14 54.3 °F 50.8 °F 30.17 in Calm     88 % 0.00 in
18:19 54.2 °F 50.7 °F 30.17 in Calm     88 % 0.00 in
18:25 54.2 °F 50.7 °F 30.17 in Calm     88 % 0.00 in
18:26 54.2 °F 50.7 °F 30.17 in Calm     88 % 0.00 in
18:45 53.3 °F 50.1 °F 30.17 in Calm     89 % 0.00 in
19:00 52.0 °F 49.5 °F 30.18 in Calm     91 % 0.00 in
19:24 50.8 °F 48.8 °F 30.19 in Calm     93 % 0.00 in
19:32 50.6 °F 48.7 °F 30.19 in Calm     93 % 0.00 in
19:46 50.3 °F 48.4 °F 30.19 in Calm     93 % 0.00 in
19:57 49.7 °F 47.8 °F 30.19 in Calm     93 % 0.00 in
20:03 49.4 °F 47.5 °F 30.20 in Calm     93 % 0.00 in
20:09 49.1 °F 47.2 °F 30.20 in Calm     93 % 0.00 in
20:21 48.7 °F 47.1 °F 30.21 in Calm     94 % 0.00 in
20:27 48.3 °F 46.7 °F 30.21 in Calm     94 % 0.00 in
20:35 48.1 °F 46.5 °F 30.21 in Calm     94 % 0.00 in
20:47 48.2 °F 46.6 °F 30.21 in Calm     94 % 0.00 in
20:52 48.2 °F 46.8 °F 30.21 in Calm     95 % 0.00 in
20:57 48.1 °F 46.5 °F 30.21 in Calm     94 % 0.00 in
21:02 48.0 °F 46.6 °F 30.22 in Calm     95 % 0.00 in
21:29 48.5 °F 47.1 °F 30.22 in Calm     95 % 0.00 in
21:35 48.4 °F 47.0 °F 30.22 in Calm     95 % 0.00 in
21:42 48.2 °F 46.8 °F 30.22 in Calm     95 % 0.00 in
21:58 47.9 °F 46.5 °F 30.22 in Calm     95 % 0.00 in
22:23 47.5 °F 46.1 °F 30.23 in Calm     95 % 0.00 in
22:29 47.3 °F 45.9 °F 30.23 in Calm     95 % 0.00 in
22:42 47.1 °F 45.7 °F 30.23 in Calm     95 % 0.00 in
22:52 46.8 °F 45.4 °F 30.23 in Calm     95 % 0.00 in
23:09 46.2 °F 44.8 °F 30.24 in Calm     95 % 0.00 in
23:21 45.8 °F 44.4 °F 30.25 in Calm     95 % 0.00 in
23:30 45.8 °F 44.4 °F 30.25 in Calm     95 % 0.00 in
23:35 45.7 °F 44.4 °F 30.25 in Calm     95 % 0.00 in
23:46 46.1 °F 45.0 °F 30.25 in Calm     96 % 0.00 in
23:52 46.3 °F 45.2 °F 30.25 in Calm     96 % 0.00 in
23:57 46.3 °F 45.2 °F 30.25 in Calm     96 % 0.00 in
Park Place, Exeter, Tulare County, California, USA
Compliments of Weather Underground - 2 mb